Showing default

CSIM, 43793

Orbit data source: Space-Track

CSIM, 43793 is a payload satellite owned by CU-LASP (US) in SSO that was launched on Mon, 03 Dec 2018 UTC via an FALCON 9 launch vehicle from the Air Force Western Test Range (AFWTR). Payload-class satellites include a variety of spacecraft equipped with specific instruments for various scientific and technological missions. These include communications satellites like Starlink; space stations such as the ISS; scientific satellites like the Hubble; Earth observation satellites from companies like Planet Labs, Umbra, and HawkEye 360; GPS; miniature CubeSats for education and research; and military/defense satellites.

Loading next visibility...
Identifier
43793, 2018-099AM
Orbit
SSO
Last TLE update
1 day ago
Origin
Manufacturer
Blue Canyon
Mission
Operational Amateur Astronomy
Bus & Motor
CUBESAT 6U, Unknown motor
Mass
10 kg wet, 10 kg dry
Launch date (UTC)
2018-12-03 (6 years ago)
Launch vehicle
FALCON 9
Launch site
Air Force Western Test Range (AFWTR)
Object type
Payload
Rocket body
Debris
Shape & HBR
Box + 2 Pan, 1.3 m
Radar Cross Section
0.143 m², Medium (>0.1 m² and < 1m²)

Expand to show TLE details & history

TLE from 1 day ago
0 CSIM
1 43793U 18099AM  25118.76678693  .00165436  00000-0  19546-2 0  9994
2 43793  97.4858 193.9060 0006924 244.6672 115.3868 15.60733018351093
Epoch: 2025-04-28T18:24Z
Definitive object data (Epoch: 2025-04-28T18:24:10.39Z)
Latitude
-0.00005°
Longitude
60.88662°
Altitude
390.692 km
Speed
7.675 km/s
True Right ascension
12h 55m 37s
True Declination
0° 00' 00"
Sunlit
Object was in full shadow at TLE epoch
Visualization TLE readout
Latitude
25.64606°
Longitude
58.64805°
Altitude
391.526 km
Speed
7.675 km/s
Apparent Right ascension
16h 04m 26s
Apparent Declination
-11° 47' 46"
Sunlit
Object is in full shadow
Visualization observer readout
Local Sidereal Time
08:49:32
Azimuth
87.23° E
Elevation
-21.852°
Doppler factor
1
Orbital elements
Apogee altitude
387.135 km
Perigee altitude
377.773 km
Semi-major axis
6,760.591 km
Eccentricity
0.0006924
Inclination
97.4858°
RAAN
193.906°
Arg. of periapsis
244.6672°
True anomaly
115.45845°
Mean anomaly
115.3868°
Eccentric anomaly
115.42263°
Mean motion
3.90451 °/min
BSTAR
0.0019546
Orbital period
92.2 mins
Loading maneuver chart data...
Loading SW <> Apogee altitude chart data...
Loading historical data...
Loading historical data...
Loading historical data...
Loading historical data...
Loading historical data...
Loading historical data...
Loading historical data...

CSIM Visibility forecast

Observer location: undefined°, undefined°

Span
Click to sort rows by Start time (UTC) header in descending order
Start Az.
Max El. time (UTC)
Max El. Az.
Max El.
End time (UTC)
End Az.
4 mins2025-04-30 04:24:02.040Z116.87° SE2025-04-30 04:26:02.040Z65.358° ENE20.64°2025-04-30 04:28:02.040Z20.583° NNE
|